#timestamp,LO_Frequency,Hit 
1501326035.1,286047004.2,P
1501326055.9,286047004.5,P
1501326075.7,286047006.4,P
1501326095.5,286047001.5,N
1501326115.4,286046998.4,N
1501326135.2,286047000.9,N
1501326155.0,286047004.8,N
1501326155.9,286047004.8,N
1501326175.8,286047005.1,N
1501326195.6,286046999.8,N
1501326215.5,286046997.1,N
1501326235.3,286046999.1,N
1501326255.1,286046998.4,N
1501326275.9,286046997.0,N
1501326295.7,286046998.1,N
1501326315.5,286047000.6,N
1501326335.4,286047000.2,N
1501326355.2,286047007.1,N
1501326375.1,286047004.6,N
1501326376.0,286047004.6,N
1501326395.8,286047000.0,N
1501326415.6,286046998.9,N
1501326435.5,286046999.9,N
1501326455.3,286047000.6,N
1501326475.1,286046998.7,N
1501326495.9,286046996.7,N
1501326515.7,286046998.0,N
1501326535.6,286046999.2,N
1501326555.4,286046997.1,N
1501326575.2,286046999.0,N
1501326595.1,286047004.5,N
1501326596.0,286047004.5,N
1501326615.8,286047008.7,N
1501326635.7,286047007.6,N
1501326655.5,286047004.1,N
1501326675.3,286047001.3,N
1501326695.2,286047000.2,N
1501326715.9,286046999.7,N
1501326735.7,286047000.6,N
1501326755.6,286047000.3,N
1501326775.4,286047000.9,N
1501326795.3,286046998.2,N
1501326815.1,286046999.3,N
1501326816.0,286046999.3,N
1501326835.8,286046998.7,N
1501326855.7,286046998.8,N
1501326875.5,286046999.1,N
1501326895.3,286046996.9,N
1501326915.2,286046996.7,N
1501326935.0,286046996.6,N
1501326935.9,286046996.6,N
1501326955.8,286046999.4,N
1501326975.6,286046997.1,N
1501326995.4,286046997.4,N
1501327015.3,286046999.1,N
1501327035.1,286046999.6,N
1501327055.8,286046996.8,N
1501327075.7,286046997.9,N
1501327095.5,286046997.6,N
1501327115.4,286046995.0,N
1501327135.2,286046995.7,N
1501327155.0,286046993.7,N
1501327155.9,286046993.7,N
1501327175.8,286046992.1,N
1501327195.6,286046994.7,N
1501327215.5,286046994.7,N
1501327235.3,286046993.3,P
1501327255.1,286046996.8,N
1501327275.9,286046997.2,N
1501327295.7,286046996.7,N
1501327315.5,286046997.5,N
1501327335.4,286046995.0,P
1501327355.2,286047002.8,P
1501327375.1,286047002.4,N
1501327376.0,286047002.4,N
1501327395.8,286047000.2,N
1501327415.6,286047002.0,N
1501327435.5,286047003.4,N
1501327455.3,286047005.1,N
1501327475.2,286047006.8,N
1501327495.9,286047006.7,N
1501327515.7,286047007.0,N
1501327535.6,286047008.0,N
1501327555.4,286047010.4,N
1501327575.2,286047009.4,N
1501327595.1,286047010.5,N
1501327596.0,286047010.5,N
1501327615.8,286047009.8,N
1501327635.7,286047012.0,N
1501327655.5,286047012.3,N
1501327675.3,286047010.2,N
1501327695.2,286047008.8,N
1501327715.0,286047006.7,N
1501327715.9,286047006.7,N
1501327735.8,286047005.3,N
1501327755.6,286047002.9,N
1501327775.4,286047004.1,N
1501327795.3,286047004.2,N
1501327815.1,286047004.4,N
1501327835.8,286047005.8,N
1501327855.7,286047005.2,N
1501327875.5,286047004.5,N
1501327895.4,286047003.5,N
1501327915.2,286047004.2,N
1501327935.0,286047004.3,N
1501327935.9,286047004.3,N
1501327955.8,286047001.8,N
1501327975.6,286047004.0,N
1501327995.4,286047004.0,N
1501328015.3,286047002.5,N
1501328035.1,286047000.7,N
1501328055.9,286047001.6,N
1501328075.7,286047003.4,N
1501328095.5,286047004.7,N
1501328115.4,286047005.4,N
1501328135.2,286047005.5,N
1501328155.0,286047003.4,N
1501328155.9,286047003.4,N
1501328175.8,286047005.4,N
1501328195.6,286047004.6,N
1501328215.5,286047004.1,N
1501328235.3,286047002.1,N
1501328255.1,286046999.8,N
1501328275.9,286046999.0,N
1501328295.7,286047001.2,N
1501328315.6,286047000.7,N
1501328335.4,286047001.1,N
1501328355.2,286046998.6,N
1501328375.1,286047000.3,N
1501328376.0,286047000.3,N
1501328395.8,286047002.8,N
1501328415.6,286047004.2,N
1501328435.5,286047005.9,P
1501328455.3,286047004.0,N
1501328475.2,286047003.0,N
1501328495.9,286047004.8,P
1501328515.7,286047000.3,N
1501328535.6,286047000.7,N
1501328555.4,286047000.5,N
1501328575.3,286047002.0,N
1501328595.1,286047000.8,N
1501328596.0,286047000.8,N
1501328615.8,286046999.2,N
1501328635.7,286046997.0,N
1501328655.5,286046997.2,N
1501328675.3,286046997.1,N
1501328695.2,286046998.6,N
1501328715.0,286047000.7,N
1501328715.9,286047000.7,N
1501328735.8,286047000.5,N
1501328755.6,286047002.4,N
1501328775.4,286047001.9,N
1501328795.3,286047003.2,N
1501328815.1,286047003.9,N
1501328835.8,286047002.4,N
1501328855.7,286046999.9,N
1501328875.5,286046998.8,N
1501328895.4,286046998.2,N
1501328915.2,286047001.1,N
1501328935.0,286046999.7,N
1501328935.9,286046999.7,N
1501328955.8,286047002.1,N
1501328975.6,286047002.1,N
1501328995.5,286047003.7,N
1501329015.3,286047005.5,N
1501329035.1,286047005.7,N
1501329055.9,286047005.5,N
1501329075.7,286047003.2,N
1501329095.5,286047001.9,N
1501329115.4,286047002.1,N
1501329135.2,286047000.2,N
1501329155.1,286046999.9,N
1501329156.0,286046999.9,N
1501329175.8,286046999.7,N
1501329195.6,286047001.9,N
1501329215.5,286047002.0,N
1501329235.3,286047002.0,N
1501329255.1,286047000.2,N
1501329275.9,286047001.0,N
1501329295.7,286046998.2,N
1501329315.6,286046998.6,N
1501329335.4,286046999.2,N
1501329355.2,286046998.0,N
1501329375.1,286046995.4,N
1501329376.0,286046995.4,N
1501329395.8,286046997.8,P
1501329415.7,286046993.3,P
1501329435.5,286046993.4,N
1501329455.3,286046994.3,N
1501329475.2,286046993.8,N
1501329495.0,286046995.9,N
1501329495.9,286046995.9,N
1501329515.7,286046996.6,N
1501329535.6,286046998.7,N
1501329555.4,286047000.7,N
1501329575.3,286047000.6,N
1501329595.1,286047000.0,N
1501329596.0,286047000.0,N
